Location: Meanaryar
(48.4161°N, 4.7315°W)
Time: 14:13:22
(UTC+00:00)

Cosmos 1092 Rocket - Pass Details

Date: 21 January 2021
Orbit: 954 x 995 km, 83.0° (Epoch: 01 March)

Event Time Altitude Azimuth Distance (km) Brightness Sun altitude
Rises 19:02:13 0° 180° (S) 3,654 7.1 -19.8°
Reaches altitude 10° 19:04:43 10° 179° (S) 2,705 6.4 -20.2°
Maximum altitude 19:10:53 74° 95° (E) 1,006 3.8 -21.2°
Drops below altitude 10° 19:17:02 10° 12° (NNE) 2,701 6.1 -22.2°
Sets 19:19:32 0° 11° (N) 3,648 6.8 -22.7°
